Location: Carite
(10.3909°N, 67.0102°W)
Time: 05:07:01
(UTC+00:00)

BREEZE-M DEB (TANK) - Pass Details

Date: 08 September 2024
Orbit: 317 x 14866 km, 49.5° (Epoch: 09 October)

Event Time Altitude Azimuth Distance (km) Brightness Sun altitude
Rises 22:52:14 0° 318° (NW) 5,368 8.2 -5.6°
Reaches altitude 10° 22:57:15 10° 315° (NW) 3,027 6.9 -6.8°
Maximum altitude 23:02:50 55° 237° (WSW) 612 2.9 -8.2°
Drops below altitude 10° 23:05:17 10° 156° (SSE) 1,345 4.0 -8.8°
Enters shadow 23:06:22 - 152° (SSE) 1,880 4.7 -9.1°
